Back to catalog

STARLINK-30335

AliveCommunicationsVLEO
NORAD 57710·PAYLOAD·🇺🇸 United States

Launched Aug 27, 2023 from Cape Canaveral Space Force Station

Loading…

Next Passes (next 24 hours)

TLE

FreshSource: CelesTrak SupGP

Epoch: Sep 15, 2026, 02:54 UTC

1 57710C 23129N   26258.12131944  .00063318  00000+0  22934-2 0  2585
2 57710  43.0012 127.9572 0001488 274.8306 145.3757 15.27546929    19

Track STARLINK-30335 in real time with AllMySat

Download on the App Store